Zurück zum Katalog

STARLINK-32494

AktivKommunikationVLEO
NORAD 62053·PAYLOAD·🇺🇸 United States

Gestartet Nov 21, 2024 von Cape Canaveral Space Force Station

Loading…

Nächste Überflüge (nächste 24 Stunden)

TLE

AktuellSource: CelesTrak SupGP

Epoche: Sep 15, 2026, 02:46 UTC

1 62053C 24216X   26258.11576389 -.00004246  00000+0 -15375-3 0  2583
2 62053  43.0018 273.6064 0001710 273.9329 109.4792 15.27592837    18

Verfolge STARLINK-32494 in Echtzeit mit AllMySat

Download on the App Store